Location: Normandy Village
(37.8755°N, 122.2655°W)
Time: 11:26:42
(UTC+00:00)

ATLAS 3B R/B - Pass Details

Date: 13 December 2019
Orbit: 1027 x 1168 km, 63.8° (Epoch: 16 January)

Event Time Altitude Azimuth Distance (km) Brightness Sun altitude
Rises 13:16:24 0° 161° (SSE) 3,834 6.0 -22.9°
Reaches altitude 10° 13:20:14 10° 141° (SE) 2,860 5.6 -22.1°
Maximum altitude 13:23:58 16° 106° (ESE) 2,446 5.6 -21.4°
Drops below altitude 10° 13:27:41 10° 72° (ENE) 2,834 5.7 -20.7°
Sets 13:31:25 0° 51° (NE) 3,782 6.1 -20.0°
